GW2280 Weather Reports


Display with metric or nautical units.
time (UTC)temp
F
wind
direction
speed
MPH
gust
MPH
rain 1hr
in
rain 24hr
in
rain mn
in
humidity
%
barometer
mb
20260905141019 63 42 5.0 15.0 0.00 0.00 0.00 86 1013.2
20260905140518 63 28 5.0 16.0 0.00 0.00 0.00 85 1013.0
20260905140035 64 33 9.0 16.0 0.00 0.00 0.00 83 1013.0
20260905135517 64 61 3.0 15.0 0.00 0.00 0.00 83 1012.9
20260905135019 64 46 3.0 15.0 0.00 0.00 0.00 84 1012.8
20260905134536 64 15 9.0 15.0 0.00 0.00 0.00 83 1012.7
20260905134019 64 90 2.0 10.0 0.00 0.00 0.00 84 1012.7
20260905133520 64 57 2.0 10.0 0.00 0.00 0.00 85 1012.7
20260905133035 64 54 2.0 12.0 0.00 0.00 0.00 85 1012.5
20260905132520 64 0 2.0 12.0 0.00 0.00 0.00 85 1012.5
20260905132020 64 45 4.0 12.0 0.00 0.00 0.00 85 1012.5
20260905131551 63 18 2.0 8.0 0.00 0.00 0.00 86 1012.5
20260905131019 63 47 3.0 6.0 0.00 0.00 0.00 86 1012.5
20260905130516 63 59 2.0 6.0 0.00 0.00 0.00 86 1012.4
20260905130042 63 55 2.0 8.0 0.00 0.00 0.00 86 1012.4
20260905125522 63 26 2.0 10.0 0.00 0.00 0.00 86 1012.3
20260905125020 63 33 3.0 12.0 0.00 0.00 0.00 86 1012.4
20260905124539 63 47 4.0 12.0 0.00 0.00 0.00 85 1012.3
20260905124020 63 40 3.0 12.0 0.00 0.00 0.00 86 1012.3
20260905123519 63 11 2.0 12.0 0.00 0.00 0.00 86 1012.2
20260905123036 63 17 4.0 12.0 0.00 0.00 0.00 87 1012.1
20260905122520 62 46 1.0 9.0 0.00 0.00 0.00 87 1012.1
20260905122017 62 0 1.0 9.0 0.00 0.00 0.00 87 1012.1
20260905121539 62 19 2.0 10.0 0.00 0.00 0.00 87 1012.0
20260905121018 62 0 2.0 10.0 0.00 0.00 0.00 87 1012.1
20260905120525 62 39 3.0 10.0 0.00 0.00 0.00 87 1012.1
20260905120040 62 352 3.0 10.0 0.00 0.00 0.00 88 1012.1
20260905115517 62 44 3.0 10.0 0.00 0.00 0.00 88 1012.1
20260905115024 61 72 4.0 10.0 0.00 0.00 0.00 88 1012.0
20260905114535 61 42 3.0 10.0 0.00 0.00 0.00 88 1012.1
20260905114017 61 28 4.0 11.0 0.00 0.00 0.00 89 1012.1
20260905113519 61 35 1.0 11.0 0.00 0.00 0.00 89 1012.0
20260905113036 61 33 5.0 11.0 0.00 0.00 0.00 89 1012.0
20260905112518 61 30 3.0 9.0 0.00 0.00 0.00 89 1011.9
20260905112019 61 30 3.0 9.0 0.00 0.00 0.00 88 1011.9
20260905111557 61 68 3.0 14.0 0.00 0.00 0.00 88 1011.8
20260905111019 61 46 3.0 14.0 0.00 0.00 0.00 88 1011.7
20260905110518 61 57 3.0 14.0 0.00 0.00 0.00 88 1011.8
20260905110036 61 43 2.0 8.0 0.00 0.00 0.00 88 1011.7
20260905105520 61 59 2.0 10.0 0.00 0.00 0.00 87 1011.7
20260905105020 61 44 3.0 10.0 0.00 0.00 0.00 87 1011.7
20260905104536 61 42 3.0 9.0 0.00 0.00 0.00 86 1011.6
20260905104017 61 34 3.0 8.0 0.00 0.00 0.00 86 1011.6
20260905103519 61 24 1.0 8.0 0.00 0.00 0.00 86 1011.6
20260905103036 61 38 1.0 9.0 0.00 0.00 0.00 86 1011.5
20260905102516 61 46 3.0 9.0 0.00 0.00 0.00 86 1011.4
20260905102016 61 38 2.0 7.0 0.00 0.00 0.00 87 1011.4
20260905101544 61 17 1.0 7.0 0.00 0.00 0.00 87 1011.4
20260905101017 61 352 2.0 6.0 0.00 0.00 0.00 87 1011.4
20260905100519 61 22 2.0 8.0 0.00 0.00 0.00 87 1011.3
20260905100039 61 0 2.0 10.0 0.00 0.00 0.00 87 1011.2
20260905095520 61 349 3.0 10.0 0.00 0.00 0.00 87 1011.1
20260905095019 61 350 5.0 9.0 0.00 0.00 0.00 88 1011.0
20260905094537 60 9 3.0 8.0 0.00 0.00 0.00 88 1011.0
20260905094020 60 352 3.0 9.0 0.00 0.00 0.00 88 1011.0
20260905093518 60 352 3.0 9.0 0.00 0.00 0.00 87 1011.0
20260905093040 60 333 3.0 9.0 0.00 0.00 0.00 87 1011.0
20260905092518 60 346 2.0 6.0 0.00 0.00 0.00 87 1011.0
20260905092016 61 331 1.0 9.0 0.00 0.00 0.00 86 1010.8
20260905091538 61 331 3.0 9.0 0.00 0.00 0.00 86 1010.8
20260905091018 61 340 3.0 8.0 0.00 0.00 0.00 86 1010.8
20260905090522 61 334 3.0 9.0 0.00 0.00 0.00 86 1010.8
20260905090035 61 352 3.0 9.0 0.00 0.00 0.00 86 1010.8
20260905085520 61 343 3.0 11.0 0.00 0.00 0.00 86 1010.9
20260905085020 61 329 3.0 11.0 0.00 0.00 0.00 86 1010.9
20260905084535 61 316 4.0 11.0 0.00 0.00 0.00 86 1010.9
20260905084019 61 332 4.0 11.0 0.00 0.00 0.00 87 1010.8
20260905083519 61 334 4.0 11.0 0.00 0.00 0.00 87 1010.7
20260905083035 61 311 4.0 10.0 0.00 0.00 0.00 86 1010.7
20260905082517 61 317 4.0 10.0 0.00 0.00 0.00 86 1010.6
20260905082020 61 352 4.0 9.0 0.00 0.00 0.00 86 1010.7
20260905081536 61 328 4.0 10.0 0.00 0.00 0.00 86 1010.7
20260905081023 61 306 4.0 10.0 0.00 0.00 0.00 86 1010.7
20260905080519 61 328 3.0 9.0 0.00 0.00 0.00 86 1010.7
20260905080035 61 323 2.0 6.0 0.00 0.00 0.00 86 1010.8
20260905075523 61 336 3.0 6.0 0.00 0.00 0.00 85 1010.7
20260905075019 61 324 3.0 6.0 0.00 0.00 0.00 85 1010.8
20260905074542 62 319 2.0 7.0 0.00 0.00 0.00 85 1010.8
20260905074019 62 352 2.0 10.0 0.00 0.00 0.00 85 1010.8
20260905073517 62 338 3.0 10.0 0.00 0.00 0.00 84 1010.7
20260905073053 62 347 5.0 10.0 0.00 0.00 0.00 83 1010.8
20260905072518 62 345 4.0 8.0 0.00 0.00 0.00 83 1010.9
20260905072017 63 338 4.0 10.0 0.00 0.00 0.00 82 1010.9
20260905071543 63 320 5.0 10.0 0.00 0.00 0.00 82 1010.9
20260905071018 64 317 4.0 9.0 0.00 0.00 0.00 81 1010.8
20260905070518 64 344 4.0 10.0 0.00 0.00 0.00 80 1010.8
20260905070038 64 360 3.0 11.0 0.00 0.00 0.00 80 1011.0
20260905065519 64 338 4.0 11.0 0.00 0.00 0.00 80 1010.9
20260905065022 64 352 4.0 11.0 0.00 0.00 0.00 80 1011.0
20260905064537 64 5 5.0 12.0 0.00 0.00 0.00 80 1011.0
20260905064022 63 360 6.0 12.0 0.00 0.00 0.00 81 1011.0
20260905063517 63 16 6.0 11.0 0.00 0.00 0.00 82 1010.9
20260905063035 63 305 5.0 11.0 0.00 0.00 0.00 82 1011.0
20260905062523 63 350 5.0 10.0 0.00 0.00 0.00 82 1011.0
20260905062017 63 350 4.0 10.0 0.00 0.00 0.00 82 1011.0
20260905061535 63 331 4.0 10.0 0.00 0.00 0.00 82 1011.1
20260905061017 63 317 4.0 10.0 0.00 0.00 0.00 82 1011.1
20260905060520 63 0 4.0 9.0 0.00 0.00 0.00 83 1011.1
20260905060040 63 328 5.0 10.0 0.00 0.00 0.00 82 1011.1
20260905055519 63 342 4.0 10.0 0.00 0.00 0.00 82 1011.0
20260905055020 63 326 3.0 8.0 0.00 0.00 0.00 83 1010.9
20260905054543 63 319 3.0 8.0 0.00 0.00 0.00 82 1011.0
20260905054020 63 326 4.0 8.0 0.00 0.00 0.00 82 1011.0
20260905053518 63 328 3.0 8.0 0.00 0.00 0.00 82 1011.0
20260905053043 63 325 2.0 8.0 0.00 0.00 0.00 82 1011.0
20260905052517 63 331 3.0 9.0 0.00 0.00 0.00 82 1011.1
20260905052016 63 331 4.0 9.0 0.00 0.00 0.00 81 1011.0
20260905051537 63 323 4.0 8.0 0.00 0.00 0.00 81 1011.0
20260905051016 63 336 4.0 8.0 0.00 0.00 0.00 81 1011.0
20260905050518 63 331 3.0 8.0 0.00 0.00 0.00 81 1011.2
20260905050039 63 336 3.0 9.0 0.00 0.00 0.00 80 1011.2
20260905045520 63 344 3.0 9.0 0.00 0.00 0.00 80 1011.3
20260905045020 63 333 3.0 9.0 0.00 0.00 0.00 80 1011.3
20260905044538 64 346 3.0 6.0 0.00 0.00 0.00 79 1011.3
20260905044019 64 331 2.0 8.0 0.00 0.00 0.00 79 1011.2
20260905043520 64 333 3.0 9.0 0.00 0.00 0.00 79 1011.3
20260905043035 64 327 4.0 9.0 0.00 0.00 0.00 79 1011.2
20260905042522 64 312 4.0 9.0 0.00 0.00 0.00 78 1011.2
20260905042018 64 336 4.0 10.0 0.00 0.00 0.00 78 1011.1
20260905041543 64 337 4.0 10.0 0.00 0.00 0.00 78 1011.1
20260905041016 64 313 5.0 10.0 0.00 0.00 0.00 78 1011.1
20260905040521 64 328 4.0 11.0 0.00 0.00 0.00 78 1011.1
20260905040038 64 319 5.0 12.0 0.00 0.00 0.00 78 1011.3
20260905035520 65 334 4.0 12.0 0.00 0.00 0.00 78 1011.3
20260905035017 65 327 6.0 12.0 0.00 0.00 0.00 78 1011.3
20260905034535 65 337 5.0 9.0 0.00 0.00 0.00 77 1011.3
20260905034019 65 341 3.0 8.0 0.00 0.00 0.00 77 1011.3
20260905033516 66 316 3.0 6.0 0.00 0.00 0.00 77 1011.4
20260905033048 66 313 1.0 8.0 0.00 0.00 0.00 79 1011.3
20260905032518 66 0 2.0 11.0 0.00 0.00 0.00 76 1011.3
20260905032017 67 299 3.0 14.0 0.00 0.00 0.00 75 1011.3
20260905031543 67 352 6.0 14.0 0.00 0.00 0.00 74 1011.3
20260905031017 67 325 7.0 14.0 0.00 0.00 0.00 73 1011.2
20260905030520 67 323 6.0 13.0 0.00 0.00 0.00 73 1011.3
20260905030038 67 321 7.0 13.0 0.00 0.00 0.00 73 1011.4
20260905025521 67 339 5.0 13.0 0.00 0.00 0.00 73 1011.4
20260905025019 67 323 5.0 14.0 0.00 0.00 0.00 72 1011.4
20260905024537 67 340 6.0 14.0 0.00 0.00 0.00 72 1011.4
20260905024024 67 360 8.0 16.0 0.00 0.00 0.00 73 1011.3
20260905023518 67 352 7.0 16.0 0.00 0.00 0.00 72 1011.4
20260905023035 67 351 7.0 14.0 0.00 0.00 0.00 72 1011.5
20260905022518 67 337 7.0 16.0 0.00 0.00 0.00 72 1011.5
20260905022021 67 311 7.0 16.0 0.00 0.00 0.00 72 1011.6
20260905021538 67 303 8.0 15.0 0.00 0.00 0.00 72 1011.6
20260905021024 67 331 7.0 16.0 0.00 0.00 0.00 72 1011.6
20260905020519 68 333 7.0 16.0 0.00 0.00 0.00 71 1011.6
20260905020036 68 336 8.0 19.0 0.00 0.00 0.00 71 1011.7
20260905015520 68 306 6.0 19.0 0.00 0.00 0.00 71 1011.7
20260905015023 68 339 9.0 17.0 0.00 0.00 0.00 71 1011.8
20260905014535 68 5 8.0 17.0 0.00 0.00 0.00 71 1011.8
20260905014016 68 314 7.0 16.0 0.00 0.00 0.00 71 1011.7
20260905013517 68 346 5.0 13.0 0.00 0.00 0.00 71 1011.6
20260905013035 68 294 5.0 13.0 0.00 0.00 0.00 72 1011.6
20260905012526 68 338 6.0 16.0 0.00 0.00 0.00 71 1011.7
20260905012017 68 343 6.0 16.0 0.00 0.00 0.00 71 1011.6
20260905011540 68 352 8.0 15.0 0.00 0.00 0.00 71 1011.8
20260905011017 68 296 8.0 15.0 0.00 0.00 0.00 71 1011.7
20260905010520 68 322 7.0 14.0 0.00 0.00 0.00 71 1011.8
20260905010036 68 319 8.0 16.0 0.00 0.00 0.00 71 1011.7
20260905005519 68 320 6.0 16.0 0.00 0.00 0.00 72 1011.7
20260905005019 69 310 6.0 15.0 0.00 0.00 0.00 71 1011.8
20260905004539 69 313 8.0 19.0 0.00 0.00 0.00 71 1011.7
20260905004019 68 360 9.0 19.0 0.00 0.00 0.00 70 1011.8
20260905003519 68 360 8.0 15.0 0.00 0.00 0.00 70 1011.7
20260905003036 68 360 9.0 15.0 0.00 0.00 0.00 69 1011.8
20260905002519 69 360 5.0 12.0 0.00 0.00 0.00 70 1012.0
20260905002020 69 360 7.0 12.0 0.00 0.00 0.00 71 1011.9
20260905001535 69 360 5.0 12.0 0.00 0.00 0.00 70 1011.9
20260905001021 69 360 6.0 13.0 0.00 0.00 0.00 70 1011.8
20260905000521 69 360 6.0 13.0 0.00 0.00 0.00 68 1011.7
20260905000038 69 360 7.0 17.0 0.00 0.00 0.00 67 1011.7
20260904235519 69 360 7.0 17.0 0.00 0.00 0.00 68 1011.8
20260904235019 69 342 7.0 17.0 0.00 0.00 0.00 68 1011.7
20260904234536 70 9 6.0 15.0 0.00 0.00 0.00 66 1011.6
20260904234019 70 344 8.0 15.0 0.00 0.00 0.00 67 1011.6
20260904233519 70 342 6.0 13.0 0.00 0.00 0.00 67 1011.5
20260904233035 70 331 5.0 14.0 0.00 0.00 0.00 67 1011.5
20260904232521 70 351 6.0 14.0 0.00 0.00 0.00 66 1011.6
20260904232017 70 337 7.0 14.0 0.00 0.00 0.00 66 1011.4
20260904231539 70 344 7.0 14.0 0.00 0.00 0.00 67 1011.4
20260904231018 71 306 4.0 12.0 0.00 0.00 0.00 66 1011.4
20260904230518 71 346 5.0 12.0 0.00 0.00 0.00 68 1011.4
20260904230038 71 336 4.0 12.0 0.00 0.00 0.00 65 1011.4
20260904225521 71 283 3.0 12.0 0.00 0.00 0.00 66 1011.4
20260904225018 72 46 6.0 14.0 0.00 0.00 0.00 66 1011.4
20260904224551 72 360 6.0 14.0 0.00 0.00 0.00 66 1011.3
20260904224018 72 360 6.0 14.0 0.00 0.00 0.00 66 1011.4
20260904223518 72 360 6.0 14.0 0.00 0.00 0.00 67 1011.3
20260904223040 72 360 4.0 12.0 0.00 0.00 0.00 70 1011.2
20260904222523 72 360 3.0 12.0 0.00 0.00 0.00 69 1011.3
20260904222018 72 360 2.0 10.0 0.00 0.00 0.00 72 1011.3
20260904221536 72 360 3.0 11.0 0.00 0.00 0.00 71 1011.3
20260904221024 72 360 3.0 11.0 0.00 0.00 0.00 69 1011.3
20260904220525 72 274 4.0 11.0 0.00 0.00 0.00 70 1011.4
20260904220038 73 313 4.0 11.0 0.00 0.00 0.00 70 1011.5
20260904215519 73 322 4.0 9.0 0.00 0.00 0.00 68 1011.4
20260904215019 73 331 2.0 10.0 0.00 0.00 0.00 66 1011.3
20260904214542 73 317 2.0 10.0 0.00 0.00 0.00 66 1011.3
20260904214017 73 340 4.0 15.0 0.00 0.00 0.00 66 1011.3
20260904213518 74 333 4.0 15.0 0.00 0.00 0.00 64 1011.3
20260904213037 74 22 4.0 13.0 0.00 0.00 0.00 63 1011.3
20260904212521 74 12 6.0 13.0 0.00 0.00 0.00 63 1011.2
20260904212016 75 335 4.0 15.0 0.00 0.00 0.00 63 1011.2
20260904211535 75 330 7.0 17.0 0.00 0.00 0.00 63 1011.2
20260904211019 75 343 8.0 17.0 0.00 0.00 0.00 62 1011.2
20260904210520 75 286 4.0 15.0 0.00 0.00 0.00 63 1011.2
20260904210044 75 285 8.0 16.0 0.00 0.00 0.00 63 1011.2
20260904205520 74 323 5.0 16.0 0.00 0.00 0.00 64 1011.1
20260904205020 74 342 6.0 13.0 0.00 0.00 0.00 66 1011.2
20260904204535 75 340 4.0 13.0 0.00 0.00 0.00 68 1011.2
20260904204017 75 335 5.0 14.0 0.00 0.00 0.00 64 1011.1
20260904203518 75 350 8.0 14.0 0.00 0.00 0.00 65 1011.1
20260904203034 75 280 6.0 13.0 0.00 0.00 0.00 66 1011.0
20260904202524 75 304 4.0 13.0 0.00 0.00 0.00 67 1011.1
20260904202016 75 329 6.0 13.0 0.00 0.00 0.00 66 1011.1
20260904201545 75 338 6.0 12.0 0.00 0.00 0.00 65 1011.1
20260904201017 75 330 7.0 12.0 0.00 0.00 0.00 65 1011.0
20260904200520 75 327 5.0 13.0 0.00 0.00 0.00 68 1011.0
20260904200038 75 340 6.0 13.0 0.00 0.00 0.00 68 1011.0
20260904195520 75 355 3.0 10.0 0.00 0.00 0.00 68 1011.0
20260904195020 75 329 3.0 9.0 0.00 0.00 0.00 67 1011.0
20260904194546 75 331 1.0 10.0 0.00 0.00 0.00 71 1011.0
20260904194017 75 332 4.0 10.0 0.00 0.00 0.00 71 1010.9
20260904193519 75 325 2.0 10.0 0.00 0.00 0.00 73 1010.9
20260904193037 75 270 4.0 9.0 0.00 0.00 0.00 72 1010.9
20260904192516 75 0 1.0 8.0 0.00 0.00 0.00 71 1010.9
20260904192017 75 306 3.0 8.0 0.00 0.00 0.00 74 1010.7
20260904191539 75 288 3.0 9.0 0.00 0.00 0.00 75 1010.9
20260904191020 76 284 4.0 9.0 0.00 0.00 0.00 74 1010.9
20260904190518 76 294 4.0 10.0 0.00 0.00 0.00 74 1010.9
20260904190039 76 0 5.0 10.0 0.00 0.00 0.00 74 1010.9
20260904185519 76 279 3.0 9.0 0.00 0.00 0.00 72 1011.0
20260904185019 77 264 2.0 10.0 0.00 0.00 0.00 72 1011.2
20260904184535 77 296 4.0 10.0 0.00 0.00 0.00 70 1011.3
20260904184019 76 331 5.0 10.0 0.00 0.00 0.00 72 1011.3
20260904183518 76 298 2.0 11.0 0.00 0.00 0.00 77 1011.2
20260904183037 76 260 5.0 11.0 0.00 0.00 0.00 75 1011.1
20260904182516 75 262 4.0 8.0 0.00 0.00 0.00 74 1011.2
20260904182024 74 296 1.0 7.0 0.00 0.00 0.00 75 1011.2
20260904181538 74 266 2.0 7.0 0.00 0.00 0.00 77 1011.3
20260904181020 74 251 0.0 3.0 0.00 0.00 0.00 78 1011.3
20260904180518 73 0 1.0 3.0 0.00 0.00 0.00 81 1011.3
20260904180037 73 0 0.0 5.0 0.00 0.00 0.00 82 1011.4
20260904175520 73 0 0.0 5.0 0.00 0.00 0.00 81 1011.5
20260904175020 73 0 0.0 4.0 0.00 0.00 0.00 78 1011.5
20260904174544 73 0 1.0 5.0 0.00 0.00 0.00 79 1011.4
20260904174021 73 0 0.0 7.0 0.00 0.00 0.00 80 1011.4
20260904173516 72 315 2.0 7.0 0.00 0.00 0.00 81 1011.5
20260904173039 72 0 1.0 5.0 0.00 0.00 0.00 84 1011.3
20260904172518 72 0 1.0 8.0 0.00 0.00 0.00 84 1011.4
20260904172019 72 286 3.0 8.0 0.00 0.00 0.00 84 1011.4
20260904171539 72 0 1.0 9.0 0.00 0.00 0.00 82 1011.6
20260904171020 72 0 2.0 13.0 0.00 0.00 0.00 81 1011.6
20260904170517 73 259 7.0 13.0 0.00 0.00 0.00 78 1011.6
20260904170040 74 272 3.0 12.0 0.00 0.00 0.00 77 1011.6
20260904165520 75 295 3.0 11.0 0.00 0.00 0.00 74 1011.6
20260904165021 75 311 5.0 13.0 0.00 0.00 0.00 70 1011.6
20260904164535 76 306 5.0 13.0 0.00 0.00 0.00 67 1011.6
20260904164019 77 339 4.0 11.0 0.00 0.00 0.00 66 1011.5
20260904163519 77 310 4.0 12.0 0.00 0.00 0.00 66 1011.4
20260904163036 77 301 5.0 14.0 0.00 0.00 0.00 66 1011.4
20260904162516 77 277 6.0 14.0 0.00 0.00 0.00 70 1011.5
20260904162018 76 351 6.0 10.0 0.00 0.00 0.00 67 1011.7
20260904161541 75 315 0.0 15.0 0.00 0.00 0.00 71 1011.7
20260904161020 75 352 5.0 15.0 0.00 0.00 0.00 67 1011.8
20260904160520 76 298 2.0 10.0 0.00 0.00 0.00 75 1011.7
20260904160040 75 342 3.0 9.0 0.00 0.00 0.00 72 1011.9
20260904155520 74 351 0.0 9.0 0.00 0.00 0.00 73 1011.9
20260904155018 75 305 1.0 8.0 0.00 0.00 0.00 74 1011.9
20260904154537 75 342 1.0 9.0 0.00 0.00 0.00 74 1011.9
20260904154024 76 360 4.0 9.0 0.00 0.00 0.00 69 1011.9
20260904153519 76 352 3.0 9.0 0.00 0.00 0.00 71 1011.9
20260904153036 76 324 0.0 8.0 0.00 0.00 0.00 77 1012.0
20260904152516 76 287 2.0 8.0 0.00 0.00 0.00 74 1012.0
20260904152020 76 0 1.0 8.0 0.00 0.00 0.00 75 1012.0
20260904151540 76 291 2.0 8.0 0.00 0.00 0.00 76 1012.0
20260904151023 76 0 0.0 6.0 0.00 0.00 0.00 80 1012.1
20260904150518 75 0 2.0 7.0 0.00 0.00 0.00 77 1012.1
20260904150058 75 234 2.0 7.0 0.00 0.00 0.00 81 1012.2
20260904145519 75 288 1.0 6.0 0.00 0.00 0.00 84 1012.3
20260904145022 74 336 2.0 5.0 0.00 0.00 0.00 80 1012.2
20260904144538 74 303 1.0 5.0 0.00 0.00 0.00 81 1012.2
20260904144018 74 323 2.0 5.0 0.00 0.00 0.00 81 1012.3
20260904143520 73 323 1.0 9.0 0.00 0.00 0.00 83 1012.2
20260904143035 73 334 3.0 9.0 0.00 0.00 0.00 86 1012.2
20260904142516 72 0 3.0 8.0 0.00 0.00 0.00 89 1012.2
20260904142018 71 344 1.0 8.0 0.00 0.00 0.00 96 1012.3
20260904141539 70 320 1.0 8.0 0.00 0.00 0.00 98 1012.3